TimeCDT,TemperatureF,Dew PointF,Humidity,Sea Level PressureIn,VisibilityMPH,Wind Direction,Wind SpeedMPH,Gust SpeedMPH,PrecipitationIn,Events,Conditions,WindDirDegrees,DateUTC
12:53 AM,34.0,30.0,85,30.17,10.0,North,9.2,-,0.00,,Overcast,10,2013-05-04 05:53:00
1:49 AM,33.8,30.2,87,30.12,10.0,North,11.5,-,0.00,,Overcast,10,2013-05-04 06:49:00
1:53 AM,34.0,30.0,85,30.14,10.0,North,12.7,17.3,0.00,,Overcast,10,2013-05-04 06:53:00
2:53 AM,34.0,30.0,85,30.14,10.0,NNE,9.2,-,0.00,,Overcast,20,2013-05-04 07:53:00
3:53 AM,33.1,30.9,92,30.15,3.0,North,6.9,-,0.01,Rain,Light Rain,10,2013-05-04 08:53:00
4:53 AM,34.0,30.9,89,30.12,10.0,NNE,10.4,-,0.01,Rain,Light Rain,20,2013-05-04 09:53:00
5:53 AM,34.0,30.9,89,30.14,10.0,NNE,9.2,-,0.00,,Overcast,20,2013-05-04 10:53:00
6:53 AM,34.0,30.9,89,30.14,7.0,NNE,8.1,-,0.00,Rain,Light Rain,20,2013-05-04 11:53:00
7:53 AM,34.0,32.0,92,30.14,10.0,NNE,8.1,21.9,0.01,,Overcast,20,2013-05-04 12:53:00
8:53 AM,36.0,32.0,86,30.15,10.0,NNE,10.4,-,N/A,,Overcast,20,2013-05-04 13:53:00
9:53 AM,37.0,33.1,86,30.15,10.0,NNE,6.9,-,N/A,,Overcast,20,2013-05-04 14:53:00
10:53 AM,37.9,34.0,86,30.15,10.0,NNE,11.5,-,N/A,,Overcast,20,2013-05-04 15:53:00
11:53 AM,41.0,36.0,82,30.15,10.0,NNE,6.9,-,N/A,,Overcast,30,2013-05-04 16:53:00
12:53 PM,42.1,36.0,79,30.16,10.0,NNE,10.4,-,N/A,,Overcast,30,2013-05-04 17:53:00
1:53 PM,44.1,37.0,76,30.16,10.0,North,9.2,-,N/A,,Overcast,10,2013-05-04 18:53:00
2:53 PM,46.0,37.9,73,30.15,10.0,North,8.1,-,N/A,,Overcast,360,2013-05-04 19:53:00
3:01 PM,46.4,39.2,76,30.12,10.0,Variable,6.9,-,N/A,,Overcast,0,2013-05-04 20:01:00
3:53 PM,48.9,39.9,71,30.14,10.0,North,10.4,-,N/A,,Overcast,10,2013-05-04 20:53:00
4:53 PM,50.0,39.9,68,30.14,10.0,NNE,8.1,-,N/A,,Mostly Cloudy,30,2013-05-04 21:53:00
5:53 PM,48.9,39.0,69,30.15,10.0,NNE,9.2,-,N/A,,Overcast,30,2013-05-04 22:53:00
6:53 PM,46.9,39.0,74,30.16,10.0,North,10.4,-,N/A,,Mostly Cloudy,10,2013-05-04 23:53:00
7:11 PM,46.4,39.2,76,30.13,10.0,North,8.1,-,N/A,,Mostly Cloudy,360,2013-05-05 00:11:00
7:53 PM,46.0,39.0,76,30.16,10.0,North,6.9,-,N/A,,Mostly Cloudy,360,2013-05-05 00:53:00
8:53 PM,45.0,39.0,80,30.17,10.0,North,9.2,-,N/A,,Overcast,360,2013-05-05 01:53:00
9:53 PM,44.1,37.9,79,30.18,10.0,NNE,9.2,-,N/A,,Overcast,20,2013-05-05 02:53:00
10:53 PM,43.0,37.9,82,30.18,10.0,North,10.4,-,N/A,,Overcast,10,2013-05-05 03:53:00
11:53 PM,42.1,37.0,82,30.18,10.0,North,6.9,-,0.00,,Overcast,10,2013-05-05 04:53:00